KUIPER-00123

导读

KUIPER-00123是美国亚马逊“柯伊伯计划”卫星互联网星座中的一颗卫星,于2025年10月14日发射入轨。该项目旨在构建近地轨道卫星互联网系统,计划部署超3200颗卫星,为全球提供高速低延迟网络服务,挑战星链的市场主导地位。KUIPER-00123的成功发射,是亚马逊推进星座部署、达成FCC部署要求的重要一步,助力项目实现云网一体化的全球覆盖目标。

Basic Information
目录编号:
65952
目录名称:
KUIPER-00123
国际标识:
2025-228F
轨道中心:
EARTH
卫星名称:
KUIPER-00123
卫星全名:
KUIPER-00123
卫星状态:
在轨 (已飞行333 天)
发射日期:
2025-10-14 UTC
国别 :
美国 (US)
星等 :
--
This satellite is enrolled in the Space Conjunction Data Service (SCDS) and the current flight risk assessment level is: No High Risk
Orbit Information
数据来源 国际轨道数据 AOE轨道数据
星历时间 2026-09-12T01:41:46+0800
13小时前
查看轨道信息
2026-09-06T07:00:00+0800
6天前
查看轨道信息
半长轴 7007.703km 7007.675km
偏心率 0.0000617 0.0000434
轨道倾角 51.900° 51.898°
近地点辐角 44.052° 55.064°
升交点赤经 260.361° 285.917°
平近点角 316.049° 97.376°
近地点 629.133km 629.233km
远地点 629.999km 629.843km
周期 97.302分钟 97.302分钟
每日圈数 14.799235 14.799324
Detailed Information
使用方式:
暂无
2D Orbit Map
3D Orbit Map
Orbit Altitude Analysis Chart
Orbit Inclination Analysis Chart
Orbit Comprehensive Analysis Chart
View Comprehensive Chart
Conjunction Data List
Event ID Objects TCA Miss Dist (km) Collision Risk Probability Collision Risk Index (CRI) Action
CDM_260910-173805-506006-595225
2026-09-10T
17:38:23+0000
1.810 km
极远距离
2.560898E-6 低风险 0.43
CDM_260914-040304-071806-595223
2026-09-14T
04:03:32+0000
2.826 km
极远距离
1.431815E-6 低风险 0.38
Miss Distance Evolution Trend with All Objects
Collision Probability Evolution Trend with All Objects